Regional Weather Roundup
Issued by NWS Mt. Holly, NJ

Current Version | Previous Version | Graphics & Text | Print | Product List | Glossary On
Versions: 1 2 3 4 5 6 7 8 9 10 11 12 13 14 15 16 17 18 19 20 21 22 23 24 25 26 27
000
ASUS41 KPHI 030514
RWRPHI

REGIONAL WEATHER ROUNDUP
NATIONAL WEATHER SERVICE MOUNT HOLLY NJ
100 AM EDT SUN JUL 03 2022

NOTE:  "FAIR" INDICATES FEW OR NO CLOUDS BELOW 12,000 FEET WITH NO
SIGNIFICANT WEATHER AND/OR OBSTRUCTIONS TO VISIBILITY.

 * = STATION DOES NOT REPORT PRECIPITATION (E.G. RAIN, SNOW, ETC.)
        OR FOG.

NJZ015>026-030600-
SOUTHERN NEW JERSEY

CITY           SKY/WX    TMP DP  RH WIND       PRES   REMARKS
POMONA         LGT RAIN  75  73  93 SW5       29.96F
WILDWOOD*      RAIN      72  70  93 W6        30.00S
MILLVILLE      MOCLDY    71  69  93 CALM      29.96F
MOUNT HOLLY    MOCLDY    76  71  85 SW3       29.95F
TRENTON        MOCLDY    75  67  76 NW3       29.95F

$$
NJZ001>014-030600-
NORTHERN NEW JERSEY

CITY           SKY/WX    TMP DP  RH WIND       PRES   REMARKS
SUSSEX         MOCLDY    71  69  93 CALM      29.98R
ANDOVER*         N/A     74  69  85 CALM      29.97S
MORRISTOWN     MOCLDY    72  68  88 CALM      29.95S
NEWARK         MOCLDY    83  66  56 SW9       29.93S
TETERBORO      MOCLDY    79  66  64 CALM      29.93R
CALDWELL       MOCLDY    75  67  76 CALM      29.95R
SOMERVILLE     MOCLDY    75  68  78 NW3       29.94R
ALLAIRE*       MOCLDY    75  75 100 SW6       29.97F

$$
PAZ043-044-047-054-055-060>062-066>071-030600-
EASTERN PENNSYLVANIA

CITY           SKY/WX    TMP DP  RH WIND       PRES   REMARKS
PHILADELPHIA   MOCLDY    75  72  90 W8        29.95F
NORTH PHILA    MOCLDY    77  68  73 W6        29.96F
BLUE BELL*     MOCLDY    72  71  96 CALM      29.97S
DOYLESTOWN     MOCLDY    75  66  73 SW5       29.96F
QUAKERTOWN*    CLEAR     72  72 100 CALM      29.97F
PERKASIE*      MOCLDY    72  72 100 CALM      29.98F
POTTSTOWN      CLOUDY    73  67  81 CALM      29.98F
LANCASTER      CLOUDY    75  70  84 CALM      29.97S
COATESVILLE    MOCLDY    72  70  94 CALM      29.99F
WEST CHESTER   FAIR      72  68  88 SW3       29.98S
READING        CLOUDY    75  70  84 CALM      29.95F
ALLENTOWN      MOCLDY    73  66  78 NW5       29.96S
QN CITY/ALNTWN FAIR      73  68  83 CALM      29.98S
MOUNT POCONO   MOCLDY    67  62  84 N5        30.03S
HAZLETON       MOCLDY    64  63  94 CALM      30.05S FOG
LEHIGHTON      FAIR      68  64  88 CALM      29.98S FOG
WILKES BARRE   CLOUDY    70  68  93 E3        30.00R

$$
DEZALL-MDZ008-012-015-019-020-030600-
DELAWARE AND EASTERN MARYLAND

CITY           SKY/WX    TMP DP  RH WIND       PRES   REMARKS
WILMINGTON     MOCLDY    72  70  93 SW3       29.96F
CHESWOLD       MOCLDY    72  72 100 S7        29.96F
GEORGETOWN     MOCLDY    76  72  87 CALM      30.00S
PATUXENT       PTCLDY   N/A N/A N/A S10       29.96S
OCEAN CITY     MOCLDY    77  73  87 SW9       29.99F
WALLOPS ISLAND PTCLDY    74  70  87 S6        30.00S
SALISBURY      MOCLDY    78  71  79 S7        29.98S

$$
PAZ001-021-NYZ056-072-MDZ011-DCZ001-030600-
OTHER NEARBY LOCATIONS

CITY           SKY/WX    TMP DP  RH WIND       PRES   REMARKS
HARRISBURG     MOCLDY    76  69  79 S8        29.96R
STATE COLLEGE  MOCLDY    71  55  56 N3        30.03S
WILLIAMSPORT   MOCLDY    68  62  81 W5        29.98S
BINGHAMTON     MOCLDY    65  51  60 NW5       30.02S
NEW YORK CITY  MOCLDY    78  66  66 CALM      29.97R
BALTIMORE      TSTM      73  69  87 SW6       29.97R
WASHINGTON DC  MOCLDY    75  69  81 NE9       29.98S

$$



USA.gov is the U.S. government's official web portal to all federal, state and local government web resources and services.